This is the latest recevied weather packets stored in our database for station/object JE6MIQ-13. If no packets are shown the sender has not sent any weather packets the latest 10 day(s).
| Time | Temp. | Humidity | Pressure | Rain* | Wind** | Luminosity | Snow |
|---|---|---|---|---|---|---|---|
| 1777669353 | 13.89° C | 44% | 1014.4 hPa | 0 mm | - | - | - |
| 1777668754 | 13.33° C | 47% | 1014 hPa | 0 mm | - | - | - |
| 1777668153 | 12.78° C | 48% | 1014 hPa | 0 mm | - | - | - |
| 1777667553 | 12.78° C | 49% | 1014 hPa | 0 mm | - | - | - |
| 1777666953 | 12.22° C | 50% | 1013.9 hPa | 0 mm | - | - | - |
| 1777666354 | 12.78° C | 51% | 1013.9 hPa | 0 mm | - | - | - |
| 1777665752 | 12.22° C | 51% | 1014 hPa | 0 mm | - | - | - |
| 1777665153 | 12.22° C | 47% | 1013.8 hPa | 0 mm | - | - | - |
| 1777664553 | 12.78° C | 48% | 1013.8 hPa | 0 mm | - | - | - |
| 1777663954 | 12.78° C | 47% | 1013.9 hPa | 0 mm | - | - | - |
| 1777663354 | 12.78° C | 46% | 1014 hPa | 0 mm | - | - | - |
| 1777662754 | 12.78° C | 43% | 1014 hPa | 0 mm | - | - | - |
| 1777662152 | 12.78° C | 44% | 1014 hPa | 0 mm | - | - | - |
| 1777661554 | 13.33° C | 40% | 1013.8 hPa | 0 mm | - | - | - |
| 1777660952 | 12.78° C | 41% | 1013.8 hPa | 0 mm | - | - | - |
| 1777660354 | 13.33° C | 39% | 1013.7 hPa | 0 mm | - | - | - |
| 1777659752 | 12.78° C | 46% | 1013.8 hPa | 0 mm | - | - | - |
| 1777659153 | 12.22° C | 45% | 1013.9 hPa | 0 mm | - | - | - |
| 1777658553 | 12.22° C | 44% | 1013.9 hPa | 0 mm | - | - | - |
| 1777657954 | 12.22° C | 46% | 1013.6 hPa | 0 mm | - | - | - |
| 1777657354 | 12.78° C | 46% | 1013.6 hPa | 0 mm | - | - | - |
| 1777656754 | 12.78° C | 46% | 1013.5 hPa | 0 mm | - | - | - |
| 1777656153 | 12.22° C | 51% | 1013.5 hPa | 0 mm | - | - | - |
| 1777655553 | 12.22° C | 51% | 1013.4 hPa | 0 mm | - | - | - |
| 1777654953 | 12.22° C | 52% | 1013.4 hPa | 0 mm | - | - | - |
* Rain latest hour (hover to see other rain measurements)
** Current wind speed in m/s (hover to see current wind gust speed)